Flag for India Weather past 2 weeks in Kolkata, West Bengal, India

Now
64 °F

Mild.


Feels Like: 64 °F
Forecast: 63 / 89 °F
Wind: No wind

Location: Calcutta / Dum Dum

Current Time: Mar 7, 2015 at 6:48:47 AM

Latest Report: Mar 7, 2015 at 6:20 AM


Visibility: 1 mi

Pressure: 29.95 "Hg

Humidity: 88%

Dew point: 61 °F

Location of KolkataLocation

Historic Weather in Kolkata — Graph

°F

Kolkata temperature yesterday

Maximum temperature yesterday: 84 °F (at 1:20 PM)
Minimum temperature yesterday: 63 °F (at 3:50 AM)
Average temperature yesterday: 73 °F

Past Weeks' High & Low Weather Summary

 TemperatureHumidityPressure
High93 °F (Feb 21, 5:20 PM)100% (Mar 1, 7:20 AM)30.04 "Hg (Mar 1, 7:20 AM)
Low63 °F (Mar 6, 3:50 AM)24% (Mar 5, 3:20 PM)29.68 "Hg (Feb 26, 6:20 PM)
Average79 °F67%29.86 "Hg
* Reported Feb 20 5:50 AM — Mar 7 5:50 AM, Kolkata, Weather by CustomWeather, © 2015

Note: Actual official high and low records may vary slightly from our data, if they occured in-between our weather recording intervals... More about our weather records

Advertising

Kolkata weather history for previous 24 hours

 ConditionsComfort  
Time TempWeatherWind HumidityBarometerVisibility
5:50 AM
Sat, Mar 7
64 °FFog.No wind88%29.92 "Hg1 mi
5:20 AM64 °FFog.No wind94%29.92 "Hg1 mi
4:50 AM66 °FFog.No wind88%29.92 "Hg1 mi
4:20 AM66 °FFog.No wind88%29.92 "Hg1 mi
3:50 AM66 °FFog.No wind88%29.92 "Hg1 mi
3:20 AM68 °FFog.No wind83%29.92 "Hg1 mi
2:50 AM70 °FFog.3 mph78%29.92 "Hg1 mi
2:20 AM70 °FFog.3 mph78%29.92 "Hg1 mi
1:50 AM66 °FFog.No wind88%29.92 "Hg1 mi
1:20 AM68 °FFog.No wind83%29.92 "Hg1 mi
12:50 AM66 °FFog.No wind88%29.92 "Hg1 mi
12:20 AM66 °FFog.No wind88%29.92 "Hg1 mi
11:50 PM
Fri, Mar 6
68 °FFog.No wind83%29.95 "Hg1 mi
11:20 PM68 °FFog.5 mph83%29.95 "Hg1 mi
10:50 PM68 °FFog.No wind78%29.95 "Hg1 mi
10:20 PM68 °FFog.No wind78%29.95 "Hg1 mi
9:50 PM70 °FHaze.No wind73%29.95 "Hg1 mi
9:20 PM70 °FHaze.No wind73%29.95 "Hg1 mi
8:50 PM72 °FHaze.No wind65%29.95 "Hg2 mi
8:20 PM72 °FHaze.No wind57%29.95 "Hg2 mi
7:50 PM73 °FHaze.No wind53%29.92 "Hg2 mi
7:20 PM77 °FHaze.No wind42%29.92 "Hg2 mi
6:20 PM79 °FHaze.3 mph37%29.89 "Hg2 mi
5:50 PM81 °FHaze.3 mph34%29.89 "Hg2 mi
5:20 PM82 °FHaze.5 mph32%29.86 "Hg2 mi
4:50 PM82 °FHaze.5 mph32%29.86 "Hg2 mi
4:20 PM82 °FHaze.3 mph32%29.89 "Hg2 mi
3:50 PM84 °FHaze.3 mph31%29.89 "Hg2 mi
3:20 PM84 °FHaze.6 mph31%29.89 "Hg2 mi
2:50 PM84 °FHaze.6 mph31%29.92 "Hg2 mi
2:20 PM84 °FHaze.6 mph27%29.92 "Hg2 mi
1:50 PM84 °FHaze.6 mph27%29.92 "Hg2 mi
1:20 PM84 °FHaze.8 mph27%29.95 "Hg3 mi
12:50 PM82 °FHaze.7 mph28%29.98 "Hg3 mi
12:20 PM82 °FHaze.6 mph28%29.98 "Hg3 mi
11:50 AM82 °FHaze.5 mph30%30.01 "Hg2 mi
11:20 AM81 °FHaze.5 mph32%30.01 "Hg2 mi
10:50 AM81 °FHaze.7 mph32%30.04 "Hg2 mi
10:20 AM79 °FHaze.6 mph37%30.04 "Hg2 mi
9:20 AM75 °FHaze.3 mph44%30.04 "Hg2 mi
8:50 AM73 °FHaze.3 mph50%30.04 "Hg2 mi
8:20 AM72 °FHaze.3 mph61%30.04 "Hg2 mi
7:50 AM70 °FHaze.3 mph64%30.01 "Hg1 mi
7:20 AM68 °FHaze.No wind73%30.01 "Hg1 mi
6:50 AM66 °FFog.No wind78%29.98 "Hg1 mi
6:20 AM63 °FFog.No wind83%29.98 "Hg1 mi
Weather by CustomWeather, © 2015

See weather overviewHow to use our weather pages